Time,TemperatureF,DewpointF,PressureIn,WindDirection,WindDirectionDegrees,WindSpeedMPH,WindSpeedGustMPH,Humidity,HourlyPrecipIn,Conditions,Clouds,dailyrainin,SoftwareType,DateUTC
2013-03-01 00:11:00,30.0,14.0,-100.00,North,-999,0.0,0.0,51,-99.99,,,0.00,,2013-03-01 07:11:00,
2013-03-01 00:21:00,30.0,14.0,-100.00,North,-999,0.0,0.0,51,-99.99,,,0.00,,2013-03-01 07:21:00,
2013-03-01 00:32:00,29.0,15.0,-100.00,North,-999,0.0,0.0,54,-99.99,,,0.00,,2013-03-01 07:32:00,
2013-03-01 00:42:00,29.0,15.0,-100.00,North,-999,0.0,0.0,54,-99.99,,,0.00,,2013-03-01 07:42:00,
2013-03-01 00:51:00,29.0,15.0,-100.00,North,-999,0.0,0.0,54,-99.99,,,0.00,,2013-03-01 07:51:00,
2013-03-01 01:00:00,32.0,16.0,-100.00,North,-999,0.0,0.0,53,-99.99,,,0.00,,2013-03-01 08:00:00,
2013-03-01 01:01:00,29.0,15.0,-100.00,North,-999,0.0,0.0,54,-99.99,,,0.00,,2013-03-01 08:01:00,
2013-03-01 01:11:00,30.0,15.0,-100.00,North,-999,0.0,0.0,54,-99.99,,,0.00,,2013-03-01 08:11:00,
2013-03-01 01:22:00,30.0,15.0,-100.00,North,-999,0.0,0.0,54,-99.99,,,0.00,,2013-03-01 08:22:00,
2013-03-01 01:32:00,32.0,16.0,-100.00,North,-999,0.0,0.0,53,-99.99,,,0.00,,2013-03-01 08:32:00,
2013-03-01 01:42:00,32.0,16.0,-100.00,North,-999,0.0,0.0,53,-99.99,,,0.00,,2013-03-01 08:42:00,
2013-03-01 01:52:00,32.0,16.0,-100.00,North,-999,0.0,0.0,53,-99.99,,,0.00,,2013-03-01 08:52:00,
2013-03-01 02:00:00,32.0,17.0,-100.00,North,-999,0.0,0.0,52,-99.99,,,0.00,,2013-03-01 09:00:00,
2013-03-01 02:11:00,32.0,16.0,-100.00,North,-999,0.0,0.0,51,-99.99,,,0.00,,2013-03-01 09:11:00,
2013-03-01 02:22:00,32.0,16.0,-100.00,North,-999,0.0,0.0,51,-99.99,,,0.00,,2013-03-01 09:22:00,
2013-03-01 02:32:00,32.0,17.0,-100.00,North,-999,0.0,0.0,52,-99.99,,,0.00,,2013-03-01 09:32:00,
2013-03-01 02:42:00,32.0,17.0,-100.00,North,-999,0.0,0.0,52,-99.99,,,0.00,,2013-03-01 09:42:00,
2013-03-01 02:52:00,32.0,17.0,-100.00,North,-999,0.0,0.0,52,-99.99,,,0.00,,2013-03-01 09:52:00,
2013-03-01 03:00:00,32.0,17.0,-100.00,North,-999,0.0,0.0,53,-99.99,,,0.00,,2013-03-01 10:00:00,
2013-03-01 03:11:00,32.0,17.0,-100.00,North,-999,0.0,0.0,53,-99.99,,,0.00,,2013-03-01 10:11:00,
2013-03-01 03:21:00,32.0,17.0,-100.00,North,-999,0.0,0.0,53,-99.99,,,0.00,,2013-03-01 10:21:00,
2013-03-01 03:32:00,32.0,17.0,-100.00,North,-999,0.0,0.0,53,-99.99,,,0.00,,2013-03-01 10:32:00,
2013-03-01 03:42:00,32.0,17.0,-100.00,North,-999,0.0,0.0,53,-99.99,,,0.00,,2013-03-01 10:42:00,
2013-03-01 03:52:00,32.0,17.0,-100.00,North,-999,0.0,0.0,53,-99.99,,,0.00,,2013-03-01 10:52:00,
2013-03-01 04:00:00,32.0,17.0,-100.00,North,-999,0.0,0.0,54,-99.99,,,0.00,,2013-03-01 11:00:00,
2013-03-01 04:11:00,32.0,16.0,-100.00,North,-999,0.0,0.0,53,-99.99,,,0.00,,2013-03-01 11:11:00,
2013-03-01 04:22:00,32.0,16.0,-100.00,North,-999,0.0,0.0,53,-99.99,,,0.00,,2013-03-01 11:22:00,
2013-03-01 04:32:00,32.0,17.0,-100.00,North,-999,0.0,0.0,54,-99.99,,,0.00,,2013-03-01 11:32:00,
2013-03-01 04:42:00,32.0,17.0,-100.00,North,-999,0.0,0.0,54,-99.99,,,0.00,,2013-03-01 11:42:00,
2013-03-01 04:52:00,32.0,17.0,-100.00,North,-999,0.0,0.0,54,-99.99,,,0.00,,2013-03-01 11:52:00,
2013-03-01 05:11:00,32.0,17.0,-100.00,North,-999,0.0,0.0,52,-99.99,,,0.00,,2013-03-01 12:11:00,
2013-03-01 05:21:00,32.0,17.0,-100.00,North,-999,0.0,0.0,52,-99.99,,,0.00,,2013-03-01 12:21:00,
2013-03-01 05:32:00,33.0,16.0,-100.00,North,-999,0.0,0.0,50,-99.99,,,0.00,,2013-03-01 12:32:00,
2013-03-01 05:42:00,33.0,16.0,-100.00,North,-999,0.0,0.0,50,-99.99,,,0.00,,2013-03-01 12:42:00,
2013-03-01 05:52:00,33.0,16.0,-100.00,North,-999,0.0,0.0,50,-99.99,,,0.00,,2013-03-01 12:52:00,
2013-03-01 06:00:00,33.0,16.0,-100.00,North,-999,0.0,0.0,49,-99.99,,,0.00,,2013-03-01 13:00:00,
2013-03-01 06:01:00,33.0,16.0,-100.00,North,-999,0.0,0.0,50,-99.99,,,0.00,,2013-03-01 13:01:00,
2013-03-01 06:11:00,33.0,16.0,-100.00,North,-999,0.0,0.0,49,-99.99,,,0.00,,2013-03-01 13:11:00,
2013-03-01 06:21:00,33.0,16.0,-100.00,North,-999,0.0,0.0,49,-99.99,,,0.00,,2013-03-01 13:21:00,
2013-03-01 06:32:00,33.0,16.0,-100.00,North,-999,0.0,0.0,49,-99.99,,,0.00,,2013-03-01 13:32:00,
2013-03-01 06:41:00,33.0,16.0,-100.00,North,-999,0.0,0.0,49,-99.99,,,0.00,,2013-03-01 13:41:00,
2013-03-01 06:51:00,33.0,16.0,-100.00,North,-999,0.0,0.0,49,-99.99,,,0.00,,2013-03-01 13:51:00,
2013-03-01 07:00:00,34.0,18.0,-100.00,North,-999,0.0,0.0,50,-99.99,,,0.00,,2013-03-01 14:00:00,
2013-03-01 07:11:00,33.0,16.0,-100.00,North,-999,0.0,0.0,49,-99.99,,,0.00,,2013-03-01 14:11:00,
2013-03-01 07:21:00,33.0,16.0,-100.00,North,-999,0.0,0.0,49,-99.99,,,0.00,,2013-03-01 14:21:00,
2013-03-01 07:32:00,34.0,18.0,-100.00,North,-999,0.0,0.0,50,-99.99,,,0.00,,2013-03-01 14:32:00,
2013-03-01 07:41:00,34.0,18.0,-100.00,North,-999,0.0,0.0,50,-99.99,,,0.00,,2013-03-01 14:41:00,
2013-03-01 07:52:00,34.0,18.0,-100.00,North,-999,0.0,0.0,50,-99.99,,,0.00,,2013-03-01 14:52:00,
2013-03-01 08:00:00,38.0,21.0,-100.00,North,-999,0.0,0.0,50,-99.99,,,0.00,,2013-03-01 15:00:00,
2013-03-01 08:31:00,38.0,21.0,-100.00,North,-999,0.0,0.0,50,-99.99,,,0.00,,2013-03-01 15:31:00,
2013-03-01 08:42:00,38.0,21.0,-100.00,North,-999,0.0,0.0,50,-99.99,,,0.00,,2013-03-01 15:42:00,
2013-03-01 08:52:00,38.0,21.0,-100.00,North,-999,0.0,0.0,50,-99.99,,,0.00,,2013-03-01 15:52:00,
2013-03-01 09:00:00,41.0,22.0,-100.00,North,-999,0.0,0.0,48,-99.99,,,0.00,,2013-03-01 16:00:00,
2013-03-01 09:11:00,39.0,22.0,-100.00,North,-999,0.0,0.0,50,-99.99,,,0.00,,2013-03-01 16:11:00,
2013-03-01 09:21:00,39.0,22.0,-100.00,North,-999,0.0,0.0,50,-99.99,,,0.00,,2013-03-01 16:21:00,
2013-03-01 09:31:00,41.0,22.0,-100.00,North,-999,0.0,0.0,48,-99.99,,,0.00,,2013-03-01 16:31:00,
2013-03-01 09:41:00,41.0,22.0,-100.00,North,-999,0.0,0.0,48,-99.99,,,0.00,,2013-03-01 16:41:00,
2013-03-01 09:51:00,41.0,22.0,-100.00,North,-999,0.0,0.0,48,-99.99,,,0.00,,2013-03-01 16:51:00,
2013-03-01 10:00:00,43.0,24.0,-100.00,North,-999,0.0,0.0,45,-99.99,,,0.00,,2013-03-01 17:00:00,
2013-03-01 10:11:00,42.0,24.0,-100.00,North,-999,0.0,0.0,47,-99.99,,,0.00,,2013-03-01 17:11:00,
2013-03-01 10:21:00,42.0,24.0,-100.00,North,-999,0.0,0.0,47,-99.99,,,0.00,,2013-03-01 17:21:00,
2013-03-01 10:31:00,43.0,24.0,-100.00,North,-999,0.0,0.0,45,-99.99,,,0.00,,2013-03-01 17:31:00,
2013-03-01 10:41:00,43.0,24.0,-100.00,North,-999,0.0,0.0,45,-99.99,,,0.00,,2013-03-01 17:41:00,
2013-03-01 10:52:00,43.0,24.0,-100.00,North,-999,0.0,0.0,45,-99.99,,,0.00,,2013-03-01 17:52:00,
2013-03-01 11:00:00,46.0,25.0,-100.00,North,-999,0.0,0.0,42,-99.99,,,0.00,,2013-03-01 18:00:00,
2013-03-01 11:12:00,44.0,24.0,-100.00,North,-999,0.0,0.0,44,-99.99,,,0.00,,2013-03-01 18:12:00,
2013-03-01 11:22:00,44.0,24.0,-100.00,North,-999,0.0,0.0,44,-99.99,,,0.00,,2013-03-01 18:22:00,
2013-03-01 11:31:00,46.0,25.0,-100.00,North,-999,0.0,0.0,42,-99.99,,,0.00,,2013-03-01 18:31:00,
2013-03-01 11:41:00,46.0,25.0,-100.00,North,-999,0.0,0.0,42,-99.99,,,0.00,,2013-03-01 18:41:00,
2013-03-01 11:52:00,46.0,25.0,-100.00,North,-999,0.0,0.0,42,-99.99,,,0.00,,2013-03-01 18:52:00,
2013-03-01 12:11:00,48.0,25.0,-100.00,North,-999,0.0,0.0,41,-99.99,,,0.00,,2013-03-01 19:11:00,
2013-03-01 12:21:00,48.0,25.0,-100.00,North,-999,0.0,0.0,41,-99.99,,,0.00,,2013-03-01 19:21:00,
2013-03-01 12:31:00,50.0,26.0,-100.00,North,-999,0.0,0.0,39,-99.99,,,0.00,,2013-03-01 19:31:00,
2013-03-01 12:42:00,50.0,26.0,-100.00,North,-999,0.0,0.0,39,-99.99,,,0.00,,2013-03-01 19:42:00,
2013-03-01 12:51:00,50.0,26.0,-100.00,North,-999,0.0,0.0,39,-99.99,,,0.00,,2013-03-01 19:51:00,
2013-03-01 13:00:00,54.0,27.0,-100.00,North,-999,0.0,0.0,35,-99.99,,,0.00,,2013-03-01 20:00:00,
2013-03-01 13:01:00,50.0,26.0,-100.00,North,-999,0.0,0.0,39,-99.99,,,0.00,,2013-03-01 20:01:00,
2013-03-01 13:11:00,53.0,28.0,-100.00,North,-999,0.0,0.0,37,-99.99,,,0.00,,2013-03-01 20:11:00,
2013-03-01 13:21:00,53.0,28.0,-100.00,North,-999,0.0,0.0,37,-99.99,,,0.00,,2013-03-01 20:21:00,
2013-03-01 13:31:00,54.0,27.0,-100.00,North,-999,0.0,0.0,35,-99.99,,,0.00,,2013-03-01 20:31:00,
2013-03-01 13:41:00,54.0,27.0,-100.00,North,-999,0.0,0.0,35,-99.99,,,0.00,,2013-03-01 20:41:00,
2013-03-01 13:52:00,54.0,27.0,-100.00,North,-999,0.0,0.0,35,-99.99,,,0.00,,2013-03-01 20:52:00,
2013-03-01 14:01:00,55.0,28.0,-100.00,North,-999,0.0,0.0,34,-99.99,,,0.00,,2013-03-01 21:01:00,
2013-03-01 14:11:00,54.0,27.0,-100.00,North,-999,0.0,0.0,35,-99.99,,,0.00,,2013-03-01 21:11:00,
2013-03-01 14:21:00,54.0,27.0,-100.00,North,-999,0.0,0.0,35,-99.99,,,0.00,,2013-03-01 21:21:00,
2013-03-01 14:31:00,55.0,28.0,-100.00,North,-999,0.0,0.0,34,-99.99,,,0.00,,2013-03-01 21:31:00,
2013-03-01 14:41:00,55.0,28.0,-100.00,North,-999,0.0,0.0,34,-99.99,,,0.00,,2013-03-01 21:41:00,
2013-03-01 14:51:00,55.0,28.0,-100.00,North,-999,0.0,0.0,34,-99.99,,,0.00,,2013-03-01 21:51:00,
2013-03-01 15:00:00,53.0,28.0,-100.00,North,-999,0.0,0.0,37,-99.99,,,0.00,,2013-03-01 22:00:00,
2013-03-01 15:11:00,54.0,28.0,-100.00,North,-999,0.0,0.0,36,-99.99,,,0.00,,2013-03-01 22:11:00,
2013-03-01 15:21:00,54.0,28.0,-100.00,North,-999,0.0,0.0,36,-99.99,,,0.00,,2013-03-01 22:21:00,
2013-03-01 15:31:00,53.0,28.0,-100.00,North,-999,0.0,0.0,37,-99.99,,,0.00,,2013-03-01 22:31:00,
2013-03-01 15:41:00,53.0,28.0,-100.00,North,-999,0.0,0.0,37,-99.99,,,0.00,,2013-03-01 22:41:00,
2013-03-01 15:51:00,53.0,28.0,-100.00,North,-999,0.0,0.0,37,-99.99,,,0.00,,2013-03-01 22:51:00,
2013-03-01 16:00:00,55.0,28.0,-100.00,North,-999,0.0,0.0,36,-99.99,,,0.00,,2013-03-01 23:00:00,
2013-03-01 16:11:00,51.0,27.0,-100.00,North,-999,0.0,0.0,39,-99.99,,,0.00,,2013-03-01 23:11:00,
2013-03-01 16:21:00,51.0,27.0,-100.00,North,-999,0.0,0.0,39,-99.99,,,0.00,,2013-03-01 23:21:00,
2013-03-01 16:31:00,55.0,28.0,-100.00,North,-999,0.0,0.0,36,-99.99,,,0.00,,2013-03-01 23:31:00,
2013-03-01 16:41:00,55.0,28.0,-100.00,North,-999,0.0,0.0,36,-99.99,,,0.00,,2013-03-01 23:41:00,
2013-03-01 16:52:00,55.0,28.0,-100.00,North,-999,0.0,0.0,36,-99.99,,,0.00,,2013-03-01 23:52:00,
2013-03-01 17:00:00,51.0,27.0,-100.00,North,-999,0.0,0.0,39,-99.99,,,0.00,,2013-03-02 00:00:00,
2013-03-01 17:11:00,52.0,27.0,-100.00,North,-999,0.0,0.0,37,-99.99,,,0.00,,2013-03-02 00:11:00,
2013-03-01 17:21:00,52.0,27.0,-100.00,North,-999,0.0,0.0,37,-99.99,,,0.00,,2013-03-02 00:21:00,
2013-03-01 17:31:00,51.0,27.0,-100.00,North,-999,0.0,0.0,39,-99.99,,,0.00,,2013-03-02 00:31:00,
2013-03-01 17:42:00,51.0,27.0,-100.00,North,-999,0.0,0.0,39,-99.99,,,0.00,,2013-03-02 00:42:00,
2013-03-01 17:52:00,51.0,27.0,-100.00,North,-999,0.0,0.0,39,-99.99,,,0.00,,2013-03-02 00:52:00,
2013-03-01 18:11:00,51.0,27.0,-100.00,North,-999,0.0,0.0,38,-99.99,,,0.00,,2013-03-02 01:11:00,
2013-03-01 18:21:00,51.0,27.0,-100.00,North,-999,0.0,0.0,38,-99.99,,,0.00,,2013-03-02 01:21:00,
2013-03-01 18:31:00,51.0,26.0,-100.00,North,-999,0.0,0.0,37,-99.99,,,0.00,,2013-03-02 01:31:00,
2013-03-01 18:42:00,51.0,26.0,-100.00,North,-999,0.0,0.0,37,-99.99,,,0.00,,2013-03-02 01:42:00,
2013-03-01 18:51:00,51.0,26.0,-100.00,North,-999,0.0,0.0,37,-99.99,,,0.00,,2013-03-02 01:51:00,
2013-03-01 19:01:00,51.0,26.0,-100.00,North,-999,0.0,0.0,37,-99.99,,,0.00,,2013-03-02 02:01:00,
2013-03-01 19:11:00,51.0,25.0,-100.00,North,-999,0.0,0.0,37,-99.99,,,0.00,,2013-03-02 02:11:00,
2013-03-01 19:21:00,51.0,25.0,-100.00,North,-999,0.0,0.0,37,-99.99,,,0.00,,2013-03-02 02:21:00,
2013-03-01 19:31:00,48.0,25.0,-100.00,North,-999,0.0,0.0,40,-99.99,,,0.00,,2013-03-02 02:31:00,
2013-03-01 19:41:00,48.0,25.0,-100.00,North,-999,0.0,0.0,40,-99.99,,,0.00,,2013-03-02 02:41:00,
2013-03-01 19:52:00,48.0,25.0,-100.00,North,-999,0.0,0.0,40,-99.99,,,0.00,,2013-03-02 02:52:00,
2013-03-01 20:01:00,45.0,24.0,-100.00,North,-999,0.0,0.0,42,-99.99,,,0.00,,2013-03-02 03:01:00,
2013-03-01 20:11:00,48.0,25.0,-100.00,North,-999,0.0,0.0,40,-99.99,,,0.00,,2013-03-02 03:11:00,
2013-03-01 20:21:00,48.0,25.0,-100.00,North,-999,0.0,0.0,40,-99.99,,,0.00,,2013-03-02 03:21:00,
2013-03-01 20:32:00,45.0,24.0,-100.00,North,-999,0.0,0.0,42,-99.99,,,0.00,,2013-03-02 03:32:00,
2013-03-01 20:41:00,45.0,24.0,-100.00,North,-999,0.0,0.0,42,-99.99,,,0.00,,2013-03-02 03:41:00,
2013-03-01 20:52:00,45.0,24.0,-100.00,North,-999,0.0,0.0,42,-99.99,,,0.00,,2013-03-02 03:52:00,
2013-03-01 21:00:00,44.0,23.0,-100.00,North,-999,0.0,0.0,43,-99.99,,,0.00,,2013-03-02 04:00:00,
2013-03-01 21:11:00,43.0,23.0,-100.00,North,-999,0.0,0.0,44,-99.99,,,0.00,,2013-03-02 04:11:00,
2013-03-01 21:21:00,43.0,23.0,-100.00,North,-999,0.0,0.0,44,-99.99,,,0.00,,2013-03-02 04:21:00,
2013-03-01 21:32:00,44.0,23.0,-100.00,North,-999,0.0,0.0,43,-99.99,,,0.00,,2013-03-02 04:32:00,
2013-03-01 21:41:00,44.0,23.0,-100.00,North,-999,0.0,0.0,43,-99.99,,,0.00,,2013-03-02 04:41:00,
2013-03-01 21:51:00,44.0,23.0,-100.00,North,-999,0.0,0.0,43,-99.99,,,0.00,,2013-03-02 04:51:00,
2013-03-01 22:00:00,42.0,23.0,-100.00,North,-999,0.0,0.0,45,-99.99,,,0.00,,2013-03-02 05:00:00,
2013-03-01 22:12:00,43.0,22.0,-100.00,North,-999,0.0,0.0,44,-99.99,,,0.00,,2013-03-02 05:12:00,
2013-03-01 22:22:00,43.0,22.0,-100.00,North,-999,0.0,0.0,44,-99.99,,,0.00,,2013-03-02 05:22:00,
2013-03-01 22:31:00,42.0,23.0,-100.00,North,-999,0.0,0.0,45,-99.99,,,0.00,,2013-03-02 05:31:00,
2013-03-01 22:41:00,42.0,23.0,-100.00,North,-999,0.0,0.0,45,-99.99,,,0.00,,2013-03-02 05:41:00,
2013-03-01 22:52:00,42.0,23.0,-100.00,North,-999,0.0,0.0,45,-99.99,,,0.00,,2013-03-02 05:52:00,
2013-03-01 23:00:00,45.0,24.0,-100.00,North,-999,0.0,0.0,43,-99.99,,,0.00,,2013-03-02 06:00:00,
2013-03-01 23:11:00,42.0,23.0,-100.00,North,-999,0.0,0.0,45,-99.99,,,0.00,,2013-03-02 06:11:00,
2013-03-01 23:21:00,42.0,23.0,-100.00,North,-999,0.0,0.0,45,-99.99,,,0.00,,2013-03-02 06:21:00,
2013-03-01 23:31:00,45.0,24.0,-100.00,North,-999,0.0,0.0,43,-99.99,,,0.00,,2013-03-02 06:31:00,
2013-03-01 23:41:00,45.0,24.0,-100.00,North,-999,0.0,0.0,43,-99.99,,,0.00,,2013-03-02 06:41:00,
2013-03-01 23:51:00,45.0,24.0,-100.00,North,-999,0.0,0.0,43,-99.99,,,0.00,,2013-03-02 06:51:00,